Weather History for Renton, WA

Change the Weather History Date:

Wednesday, February 6, 2013

  Actual Average Record
Temperature  
Mean Temperature 48 °F -  
Max Temperature 52 °F 48 °F 61 °F (2012)
Min Temperature 44 °F 35 °F 21 °F (2014)
Degree Days  
Heating Degree Days 17    
Moisture  
Dew Point 40 °F    
Average Humidity 79    
Maximum Humidity 89    
Minimum Humidity 56    
Precipitation  
Precipitation 0.04 in - - ()
Sea Level Pressure  
Sea Level Pressure 29.98 in    
Wind  
Wind Speed 6 mph (SE)    
Max Wind Speed 13 mph    
Max Gust Speed 20 mph    
Visibility 10 miles    
Events Rain    
Averages and records for this station are not official NWS values.
T = Trace of Precipitation, MM = Missing Value Source: NWS Daily Summary

Daily Weather History Graph

Daily Weather History Graph

Search for Another Location

Airport:

Trip Planner

Search our weather history database for the weather conditions in past years. The results will help you decide how hot, cold, wet, or windy it might be!

Date:

Astronomy

Feb. 06, 2013 Rise Set
Actual Time 7:27 AM PST 5:18 PM PST
Civil Twilight 6:55 AM PST 5:51 PM PST
Nautical Twilight 6:18 AM PST 6:27 PM PST
Astronomical Twilight 5:43 AM PST 7:03 PM PST
Moon 4:25 AM PST (2/6) 1:34 PM PST (2/6)
Length of Visible Light 10h 55m
Length of Day
9h 51m
Waning Crescent, 16% of the Moon is Illuminated
Feb 6
Waning Crescent
Feb 9
New
Feb 17
First Quarter
Feb 25
Full
Mar 4
Last Quarter

Hourly Weather History & Observations

Time (PST) Temp. Windchill Dew Point Humidity Pressure Visibility Wind Dir Wind Speed Gust Speed Precip Events Conditions
12:53 AM 45.0 °F 41.2 °F 39.9 °F 82% 29.99 in 10.0 mi SSE 6.9 mph - N/A   Overcast
1:17 AM 44.6 °F 40.7 °F 39.2 °F 81% 29.98 in 10.0 mi SSE 6.9 mph - N/A   Overcast
1:53 AM 44.1 °F 42.5 °F 41.0 °F 89% 30.00 in 9.0 mi ESE 3.5 mph - 0.00 in Rain Light Rain
2:53 AM 45.0 °F 43.5 °F 39.9 °F 82% 30.01 in 10.0 mi SSE 3.5 mph - 0.00 in   Overcast
3:53 AM 45.0 °F 41.2 °F 39.9 °F 82% 30.02 in 10.0 mi SSE 6.9 mph - N/A   Overcast
4:53 AM 45.0 °F 41.2 °F 39.9 °F 82% 30.04 in 10.0 mi SSE 6.9 mph - 0.00 in   Overcast
5:53 AM 44.1 °F 40.1 °F 39.9 °F 85% 30.05 in 10.0 mi SSE 6.9 mph - 0.01 in   Overcast
6:53 AM 44.1 °F 38.6 °F 41.0 °F 89% 30.06 in 10.0 mi SSE 10.4 mph - 0.00 in   Overcast
7:14 AM 44.6 °F 41.4 °F 39.2 °F 81% 30.05 in 10.0 mi SSE 5.8 mph - N/A   Mostly Cloudy
7:38 AM 44.6 °F 42.2 °F 41.0 °F 87% 30.06 in 10.0 mi SE 4.6 mph - N/A   Overcast
7:53 AM 44.1 °F 41.5 °F 41.0 °F 89% 30.08 in 10.0 mi SE 4.6 mph - N/A   Overcast
8:53 AM 45.0 °F 43.5 °F 41.0 °F 86% 30.07 in 10.0 mi ESE 3.5 mph - N/A   Overcast
9:53 AM 45.0 °F 42.6 °F 41.0 °F 86% 30.06 in 10.0 mi SSE 4.6 mph - N/A   Clear
10:53 AM 48.0 °F - 39.0 °F 71% 30.06 in 10.0 mi SSE 6.9 mph - N/A   Mostly Cloudy
11:53 AM 51.1 °F - 37.9 °F 61% 30.03 in 10.0 mi SSE 6.9 mph - N/A   Mostly Cloudy
12:53 PM 51.1 °F - 36.0 °F 56% 30.01 in 10.0 mi SSE 11.5 mph - N/A   Mostly Cloudy
1:53 PM 52.0 °F - 37.0 °F 57% 29.99 in 10.0 mi SSE 12.7 mph 19.6 mph N/A   Overcast
2:53 PM 50.0 °F - 39.9 °F 68% 29.98 in 10.0 mi SSE 8.1 mph - 0.00 in   Overcast
3:53 PM 48.0 °F - 39.9 °F 74% 29.97 in 10.0 mi ESE 3.5 mph - 0.00 in   Overcast
4:53 PM 46.9 °F - 42.1 °F 83% 29.97 in 4.0 mi ESE 4.6 mph - 0.02 in Rain Light Rain
5:53 PM 46.0 °F 43.9 °F 42.1 °F 86% 29.93 in 10.0 mi ESE 4.6 mph - 0.00 in   Overcast
6:53 PM 46.0 °F - 42.1 °F 86% 29.91 in 10.0 mi Calm Calm - 0.01 in Rain Light Rain
7:53 PM 46.0 °F - 39.9 °F 79% 29.87 in 10.0 mi Calm Calm - 0.00 in   Overcast
8:53 PM 45.0 °F - 39.9 °F 82% 29.85 in 10.0 mi Calm Calm - N/A   Overcast
9:53 PM 46.0 °F 44.8 °F 39.0 °F 76% 29.83 in 10.0 mi South 3.5 mph - N/A   Overcast
10:53 PM 46.0 °F - 37.9 °F 73% 29.81 in 10.0 mi Calm Calm - N/A   Overcast
11:53 PM 46.0 °F 44.8 °F 39.0 °F 76% 29.81 in 10.0 mi SE 3.5 mph - 0.00 in   Overcast